STARLINK-1131, 45047

Orbit data source: Space-Track

STARLINK-1131, 45047 is a payload satellite owned by SpaceX/Seattle (US) in LEO that was launched on Wed, 29 Jan 2020 UTC via an FALCON 9 launch vehicle from the Air Force Eastern Test Range (AFETR). Payload-class satellites include a variety of spacecraft equipped with specific instruments for various scientific and technological missions. These include communications satellites like Starlink; space stations such as the ISS; scientific satellites like the Hubble; Earth observation satellites from companies like Planet Labs, Umbra, and HawkEye 360; GPS; miniature CubeSats for education and research; and military/defense satellites.

Loading next visibility...
Identifier
45047, 2020-006D
Orbit
LEO
Country
Flag of USUS
Related business
Manufacturer
SpaceX/Seattle
Mission
Operational Commercial Communications
Bus & Motor
STARLINK, Unknown motor
Mass
260 kg wet, ~248 kg dry
Launch date (UTC)
2020-01-29 (6 years ago)
Launch vehicle
FALCON 9
Launch site
Air Force Eastern Test Range (AFETR)
Object type
Payload
Rocket body
Debris
Shape & HBR
Box + 1 Pan, 10.1 m
Radar Cross Section
13.562 m², Large (>1 m²)

Expand to show TLE details & history
Last TLE update: 15 hours ago

TLE from 15 hours ago
0 STARLINK-1131
1 45047U 20006D   25308.49918189  .00000546  00000-0  55567-4 0  9992
2 45047  53.0542 129.1607 0000868  98.5839 261.5248 15.06384794317580
Epoch: 2025-11-04T11:58Z
TLE epoch observation values (Epoch: 2025-11-04T11:58:49.315Z)
Latitude
-0.00004°
Longitude
-94.53014°
Altitude
548.226 km
Speed
7.589 km/s
True Right ascension
08h 36m 38s
True Declination
0° 00' 00"
Sunlit
Object was in daylight at epoch
Visualization orbit readout
Latitude
Unknown
Longitude
Unknown
Altitude
Unknown
Speed
Unknown
Apparent Right ascension
Unknown
Apparent Declination
Unknown
Sunlit
N/A
Visualization observer readout
Local Sidereal Time
23:05:00
Azimuth
Unknown
Elevation
Unknown
Doppler factor
Unknown
Orbital elements
Apogee altitude
548.13 km
Perigee altitude
546.928 km
Semi-major axis
6,925.666 km
Eccentricity
0.00009
Inclination
53.0542°
RAAN
129.1607°
Arg. of periapsis
98.5839°
True anomaly
261.51496°
Mean anomaly
261.5248°
Eccentric anomaly
261.51988°
Mean motion
3.76574 °/min
Orbital period
95.6 mins
BSTAR
0.000055567
Loading maneuver chart data...
Computing Atmospheric mass density...

Documentation

Showing up to 5 results
|